Airfield :
LOGIN :

Register | Disclaimer

   EN    FR    IT 

 










Legend :    VFR   Marginal VFR   IFR   Intensive IFR   Very Intensive IFR
Visi :
Ceiling :
>= 8 km
>= 3000ft
5 to 8 km
1000 to 3000 ft
1500m to 5 km
500 to 1000 ft
800 to 1500m
200 to 500 ft
< 800m
< 200 ft
Symbols :   Thunderstorms  Fog  Heavy snow  Heavy precipitations  Wind > 20 kt
SIGMETs :     Misc.  Thunderstorms  Icing  Turbulence  Mountain Waves  Volcanic Ashes






- Airport Elevation : 231 ft
- IATA code : WTN


EGXW - RAF Waddington

CURRENT METAR :
  • 210350Z AUTO 25019KT 9999 BKN013/// SCT034/// 03/01 Q0975 REUP

EXPIRED METARs :
  • 210250Z AUTO 25017KT 9999 UP SCT012/// BKN018/// 02/01 Q0974
  • 210150Z AUTO 25015G25KT 9999 UP BKN015/// SCT050/// 02/01 Q0973

TAF TAF EGXW
Valid from the 20 at 18:00 until the 21 at 12:00 UTC


201617Z 2018/2112 19022G32KT 9999 -RA BKN013
PROB30 2018/2022 FEW013 BKN018
PROB30
TEMPO 2018/2022 5000 RA
TEMPO 2022/2101 3000 +RA
BECMG 2023/2102 26020G30KT
PROB30
TEMPO 2023/2101 2000 +RA
PROB30 2100/2102 BKN003
BECMG 2102/2104 NSW SCT025
PROB30
TEMPO 2104/2108 SCT014
BECMG 2105/2108 23020G30KT



MET'MAP, your aeronautical weather chart ! - Copyright ORBIFLY December 2007 - Disclaimer

ORBIFLY MET'MAP TEAM :

Programming & Development : Alexandra Zaïnal
Concept & original design : Baudouin d'Aumeries
Assistance for programming : Marc-Olivier Méhu
Technical & hardware support : Manuel Goepfert

Contact : metmap@orbifly.com




SOURCES & CREDITS :

   NOAA